This is the latest recevied weather packets stored in our database for station/object KB1JLI. If no packets are shown the sender has not sent any weather packets the latest 10 day(s).
| Time | Temp. | Humidity | Pressure | Rain* | Wind** | Luminosity | Snow |
|---|---|---|---|---|---|---|---|
| 1777733420 | 10° C | 83% | 1012.1 hPa | 0 mm | - | 261 W/m² | - |
| 1777733117 | 10° C | 84% | 1012.1 hPa | 0 mm | - | 271 W/m² | - |
| 1777732814 | 10° C | 84% | 1012.1 hPa | 0 mm | - | 196 W/m² | - |
| 1777732510 | 10° C | 83% | 1012.1 hPa | 0 mm | - | 124 W/m² | - |
| 1777732208 | 9.44° C | 84% | 1012.3 hPa | 0 mm | - | 108 W/m² | - |
| 1777731905 | 9.44° C | 86% | 1012.4 hPa | 0 mm | - | 307 W/m² | - |
| 1777731601 | 8.89° C | 86% | 1012.5 hPa | 0 mm | - | 224 W/m² | - |
| 1777731299 | 8.89° C | 87% | 1012.6 hPa | 0 mm | - | 178 W/m² | - |
| 1777730996 | 8.89° C | 88% | 1012.6 hPa | 0 mm | - | 167 W/m² | - |
| 1777730695 | 8.33° C | 88% | 1012.9 hPa | 0 mm | - | 545 W/m² | - |
| 1777730390 | 7.78° C | 88% | 1012.8 hPa | 0 mm | - | 262 W/m² | - |
| 1777730086 | 7.78° C | 89% | 1013 hPa | 0 mm | - | 115 W/m² | - |
| 1777729783 | 7.78° C | 89% | 1012.8 hPa | 0 mm | - | 165 W/m² | - |
| 1777729480 | 7.78° C | 89% | 1012.9 hPa | 0 mm | - | 130 W/m² | - |
| 1777729177 | 7.78° C | 90% | 1013 hPa | 0 mm | - | 93 W/m² | - |
| 1777728874 | 7.78° C | 90% | 1013 hPa | 0 mm | - | 105 W/m² | - |
| 1777728571 | 7.22° C | 91% | 1012.9 hPa | 0 mm | - | 207 W/m² | - |
| 1777728267 | 7.22° C | 92% | 1012.6 hPa | 0 mm | - | 135 W/m² | - |
| 1777727965 | 7.22° C | 92% | 1012.9 hPa | 0 mm | - | 162 W/m² | - |
| 1777727661 | 7.22° C | 92% | 1012.6 hPa | 1.27 mm | - | 178 W/m² | - |
| 1777727359 | 7.22° C | 92% | 1012.6 hPa | 1.27 mm | - | 153 W/m² | - |
| 1777727056 | 6.67° C | 92% | 1012.8 hPa | 0 mm | - | 87 W/m² | - |
| 1777726753 | 6.67° C | 92% | 1012.8 hPa | 0 mm | - | 43 W/m² | - |
| 1777726451 | 6.67° C | 92% | 1012.8 hPa | 0 mm | - | 66 W/m² | - |
| 1777726147 | 6.67° C | 92% | 1012.6 hPa | 1.78 mm | - | 58 W/m² | - |
* Rain latest hour (hover to see other rain measurements)
** Current wind speed in m/s (hover to see current wind gust speed)